Regional Weather Roundup
Issued by NWS Green Bay, WI

Home | Current Version | Previous Version | Text Only | Print | Product List | Glossary On
Versions: 1 2 3 4 5 6 7 8 9 10 11 12 13 14 15 16 17 18 19 20 21 22 23 24 25 26 27 28 29 30 31 32 33 34 35 36 37 38 39 40 41 42 43 44 45 46 47 48 49 50
000
ASUS43 KGRB 241610
RWRGRB

NORTH-CENTRAL AND NORTHEAST WISCONSIN REGIONAL WEATHER ROUNDUP
NATIONAL WEATHER SERVICE GREEN BAY WI
1000 AM CST MON NOV 24 2014

WIZ005-009-010>012-018-019-241700-
NORTH CENTRAL WISCONSIN

CITY           SKY/WX    TMP DP  RH WIND       PRES   REMARKS
IRONWOOD       CLOUDY    32  30  93 N15G21    29.16R VSB 3/4
MANITOWISH WTR FLURRIES  32  32 100 N9G16     29.13R
ARBOR VITAE    CLOUDY    34  33  96 N12G17    29.12R FOG
EAGLE RIVER    NOT AVBL
LAND O LAKES   MIX PCPN  33  33 100 N7        29.12R
RHINELANDER    LGT RAIN  35  33  92 NW3       29.11R
PHILLIPS       LGT SNOW  32  32 100 NW7       29.15R
ANTIGO         DRIZZLE   35  35 100 NW13G18   29.07R
TOMAHAWK       LGT RAIN  33  32  96 NW6       29.12S
MERRILL        LGT RAIN  35  34  97 N8        29.12R
$$

WIZ013-073-241700-
NORTHEAST WISCONSIN

CITY           SKY/WX    TMP DP  RH WIND       PRES   REMARKS
IRON MOUNTAIN  CLOUDY    37  35  92 NW15      29.05R
MARINETTE      CLOUDY    43  39  87 NW6       29.03R
OCONTO         CLOUDY    43  43 100 NW5       29.04R
$$

WIZ017-030-035>037-045-241700-
CENTRAL WISCONSIN

CITY           SKY/WX    TMP DP  RH WIND       PRES   REMARKS
MEDFORD        LGT SNOW  32  32  99 NW12      29.14R
WAUSAU         LGT RAIN  36  33  89 NW13G21   29.09R
MOSINEE        NOT AVBL
MARSHFIELD     LGT SNOW  34  32  92 NW18      29.15R FOG
WISC RAPIDS    CLOUDY    35  32  88 NW13G24   29.16R
STEVENS POINT  LGT RAIN  34  33  96 NW10G16   29.11R
WAUPACA        RAIN      40  39  96 NW8       29.09R
SHAWANO        CLOUDY    42  41  95 NW7       29.06R
CLINTONVILLE   CLOUDY    39  37  93 NW12      29.07R
$$

WIZ038-039-048-051-241700-
FOX VALLEY

CITY           SKY/WX    TMP DP  RH WIND       PRES   REMARKS
NWS GREEN BAY  CLOUDY    43  41  93 NW9       29.06R
APPLETON       CLOUDY    41  41 100 NW9       29.06R
OSHKOSH        LGT RAIN  41  39  93 W9        29.08R
FOND DU LAC    CLOUDY    41  38  89 W12G18    29.08R
$$

WIZ022-050-052-241700-
EAST CENTRAL WISCONSIN

CITY           SKY/WX    TMP DP  RH WIND       PRES   REMARKS
STURGEON BAY   CLOUDY    43  39  87 W8        29.04R
MANITOWOC      CLOUDY    44  43  96 NW10      29.05R
SHEBOYGAN      LGT RAIN  43  41  93 W8        29.06R
$$

LMZ563-521-522-541>543-241700-
LAKESHORE

STATION/POSITION TIME  TEMP    WIND        PRES    VSBY  WAVE
                       AIR SEA DIR/SP/G                  HT/PER
                 (UTC) (F)     (DEG/KT/KT) (MB)    (MI)  (FT/S)
SHEBOYGAN LKSHOR 1600   44 38  290/  9/ 12  984.5R
KEWAUNEE LKSHORE 1600   43     300/  6/  9  982.8R
NORTHPORT PIER   1600   41     280/  7/  9  983.1S
N MID LAKE BUOY  1600   42 42  290/ 10/ 12  982.4R         2/ 6
SISTER BAY LKSHO 1500          300/  6/  7   N/A
CHAMBERS ISLAND  1600   42     270/  3/  6  983.7R
MENOMINEE LKSHOR 1600   42     290/  7/ 12  984.1R
$$


USA.gov is the U.S. government's official web portal to all federal, state and local government web resources and services.